Location: Kuffner-Sternwarte
(48.2130°N, 16.2960°E)
Time: 05:05:18
(UTC+01:00)

COROT - Pass Details

Date: 22 May 2017
Orbit: 602 x 887 km, 90.0° (Epoch: 24 November)

Event Time Altitude Azimuth Distance (km) Brightness Sun altitude
Rises 22:01:02 0° 359° (N) 3,222 10.1 -11.4°
Reaches altitude 10° 22:03:28 10° 357° (N) 2,246 9.3 -11.6°
Maximum altitude 22:08:21 65° 277° (W) 761 6.2 -12.2°
Drops below altitude 10° 22:12:51 10° 195° (SSW) 2,061 7.9 -12.6°
Enters shadow 22:13:46 - 194° (SSW) 2,429 8.2 -12.7°
